[[{"header":{"parameterUnit":"m.s-1","parameterCategory":1,"la1":30.2991,"la2":30.254,"lo1":-89.0895,"lo2":-89.0444,"dy":0.0017,"dx":0.0017,"nx":28,"ny":28,"refTime":"2026-01-10T09:00:00:Z","depth":0,"parameterNumber":2,"parameterNumberName":"U-component_of_WINDS"},"data":[0,0,0,0,0,0,0,0,0,0,0,0,0,0,0,0,0,0,0,0,0,0,0,0,0,0,0,0,0,0,0,0,0,0,0,0,0,0,0,0,0,0,0,0,0,0,0,0,0,0,0,0,0,0,0,0,0,0,0.4677,0.4677,0,0.4677,0.4677,0.4677,0.4682,0.4682,0.4682,0.4683,0.4682,0.4682,0.4682,0,0,0,0,0,0,0,0,0,0,0,0,0,0.468,0.468,0.4677,0.4677,0.4677,0.4677,0.4677,0.4677,0.4682,0.4682,0.4683,0.4683,0.4682,0.4682,0.4681,0,0,0,0,0,0,0,0,0,0,0,0,0,0.4679,0.468,0.4677,0.4679,0.468,0.4677,0.4677,0.4677,0.4682,0.4682,0.4683,0.4683,0.4682,0.4682,0.4681,0.4676,0,0,0.4681,0.4681,0,0,0,0,0,0,0,0,0.4679,0.4679,0.4679,0.4679,0.4679,0.468,0.4678,0.4677,0.4682,0.4681,0.4683,0.4683,0.4681,0.4681,0.468,0.4676,0.4676,0.4681,0.4681,0.4681,0.4681,0,0,0,0,0,0,0,0.4679,0.4679,0.4677,0.4679,0.4679,0.468,0.4681,0.4678,0.468,0.4681,0.4682,0.4682,0.4681,0.4681,0.468,0.4676,0.4681,0.4681,0.468,0.468,0.4669,0.4669,0,0,0,0,0,0,0.4679,0.4679,0.4677,0.4677,0.468,0.468,0.468,0.468,0.468,0.468,0.4682,0.4682,0.4681,0.4681,0.468,0.4675,0.4681,0.468,0.468,0.4669,0.4669,0.4668,0,0,0,0,0,0,0.4679,0.4679,0.4677,0.4678,0.4678,0.468,0.4679,0.4679,0.4679,0.468,0.468,0.4681,0.4681,0.4681,0.4678,0.4675,0.468,0.468,0.4669,0.4669,0.4669,0.4663,0,0,0,0,0,0,0.4679,0.4679,0.4677,0.4678,0.4678,0.4674,0.4679,0.4679,0.4679,0.4679,0.4679,0.468,0.4681,0.4678,0.4677,0.4675,0.468,0.4669,0.4669,0.4669,0.4664,0.4663,0.4662,0,0,0,0,0,0.4679,0.4675,0.4677,0.4676,0.4676,0.4674,0.4674,0.4676,0.4679,0.4677,0.4678,0.468,0.4675,0.4678,0.4677,0.4674,0.467,0.4669,0.4669,0.4664,0.4663,0.4662,0,0,0,0,0,0,0.4673,0.4675,0.4677,0.4673,0.4673,0.4675,0.4672,0.4675,0.4674,0.4674,0.4677,0.4677,0.4673,0.4673,0.4676,0.467,0.4673,0.4672,0.467,0.4669,0.4668,0.4668,0.468,0,0,0,0,0,0.4671,0.467,0.4672,0.4668,0.4668,0.467,0.467,0.4671,0.4672,0.4672,0.4672,0.4672,0.4671,0.467,0.4669,0.4664,0.4664,0.4662,0.4661,0.4661,0.466,0.4658,0.4657,0.4667,0.4667,0.4667,0,0,0.4667,0.4668,0.4667,0.4667,0.4667,0.4666,0.467,0.4668,0.4667,0.4671,0.4668,0.4669,0.4669,0.4665,0.4664,0.4665,0.4657,0.466,0.466,0.4659,0.4658,0.4657,0.4656,0.4667,0.4667,0.4667,0,0,0.4659,0.4659,0.4657,0.4657,0.4658,0.466,0.4659,0.4661,0.4661,0.4659,0.4662,0.4661,0.4658,0.4659,0.4658,0.4652,0.4654,0.4651,0.4647,0.4645,0.4644,0.4644,0.4642,0.4641,0.4651,0.4651,0.4651,0,0.4653,0.4652,0.4655,0.4653,0.4653,0.4657,0.4655,0.4655,0.4655,0.4655,0.4657,0.4655,0.4655,0.4652,0.465,0.465,0.4649,0.4651,0.4644,0.4644,0.4643,0.4641,0.464,0.465,0.465,0.465,0.465,0,0.4645,0.4644,0.4642,0.4643,0.4642,0.464,0.4643,0.4642,0.4645,0.4646,0.4644,0.4645,0.4644,0.4643,0.4645,0.4641,0.4642,0.4644,0.4647,0.4642,0.464,0.4639,0.465,0.465,0.465,0.465,0,0,0.4632,0.4636,0.4635,0.4636,0.4638,0.4637,0.4635,0.4635,0.4634,0.4635,0.4633,0.4632,0.4634,0.4634,0.4636,0.4635,0.463,0.4637,0.4637,0.4636,0.4625,0.4624,0.4623,0.4631,0.4631,0.4631,0.4625,0,0.4624,0.4622,0.4625,0.4622,0.4621,0.4626,0.4624,0.4625,0.4627,0.4626,0.4628,0.4627,0.463,0.463,0.4629,0.4631,0.4628,0.4631,0.463,0.463,0.463,0.4622,0.4619,0.4614,0.4625,0.4625,0.4624,0,0.4615,0.4616,0.4612,0.4615,0.4615,0.4614,0.4615,0.4614,0.4615,0.4617,0.4617,0.462,0.4618,0.4622,0.462,0.4623,0.4622,0.4623,0.4623,0.4623,0.4627,0.4621,0.4612,0.4611,0.4623,0.4623,0.4624,0,0.4606,0.4606,0.4604,0.4605,0.4608,0.4607,0.4609,0.461,0.461,0.4611,0.4611,0.4612,0.4612,0.4612,0.4615,0.4617,0.4613,0.4616,0.4614,0.4614,0.4612,0.4612,0.4603,0.4612,0.4612,0.4612,0.4612,0,0.4597,0.4595,0.46,0.4599,0.4597,0.4601,0.4599,0.4601,0.4603,0.4602,0.4606,0.4605,0.4609,0.4609,0.4611,0.4609,0.4609,0.461,0.4611,0.461,0.461,0.461,0.461,0.4612,0.4612,0.4612,0.4612,0,0.4586,0.459,0.4588,0.4592,0.4593,0.4591,0.4594,0.4594,0.4596,0.4595,0.4595,0.4599,0.4599,0.4602,0.4602,0.4604,0.4601,0.4603,0.4601,0.4601,0.4599,0.4599,0.4589,0.4588,0.4598,0.4598,0.4598,0,0.458,0.4579,0.4583,0.4583,0.4584,0.4584,0.4585,0.4589,0.4589,0.4591,0.459,0.4591,0.4591,0.4591,0.4594,0.4594,0.4596,0.4592,0.4596,0.4595,0.4596,0.4596,0.4596,0.4591,0.4591,0.4591,0.4591,0,0.4569,0.4571,0.4572,0.4574,0.4574,0.4575,0.4577,0.4577,0.4581,0.4582,0.4582,0.4583,0.4584,0.4584,0.4585,0.4587,0.459,0.459,0.4589,0.4588,0.4587,0.4588,0.4599,0.459,0.459,0.459,0.459,0.459,0.4561,0.456,0.4563,0.4564,0.4565,0.4567,0.4567,0.4569,0.457,0.4571,0.4574,0.4574,0.4577,0.4579,0.458,0.458,0.4582,0.4581,0.4581,0.458,0.458,0.4588,0.458,0.458,0.458,0.458,0.458,0,0.455,0.4552,0.4553,0.4556,0.4556,0.456,0.4562,0.4562,0.4563,0.4565,0.4566,0.4566,0.4567,0.457,0.4571,0.4571,0.4572,0.4571,0.4571,0.4571,0.4578,0.4579,0.457,0.457,0.457,0.457,0.457,0.457,0.4544,0.4543,0.4546,0.4546,0.4549,0.4549,0.455,0.4552,0.4554,0.4555,0.4556,0.4558,0.4561,0.4562,0.4563,0.4564,0.4564,0.4563,0.4564,0.457,0.4571,0.4572,0.4572,0.4563,0.4563,0.4557,0.4557,0.4557]},{"header":{"parameterUnit":"m.s-1","parameterCategory":1,"la1":30.2991,"la2":30.254,"lo1":-89.0895,"lo2":-89.0444,"dy":0.0017,"dx":0.0017,"nx":28,"ny":28,"refTime":"2026-01-10T09:00:00:Z","depth":0,"parameterNumber":3,"parameterNumberName":"V-component_of_WINDS"},"data":[0,0,0,0,0,0,0,0,0,0,0,0,0,0,0,0,0,0,0,0,0,0,0,0,0,0,0,0,0,0,0,0,0,0,0,0,0,0,0,0,0,0,0,0,0,0,0,0,0,0,0,0,0,0,0,0,0,0,-6.1225,-6.1226,0,-6.1304,-6.1305,-6.1306,-6.13,-6.1299,-6.1297,-6.1296,-6.1372,-6.1375,-6.1378,0,0,0,0,0,0,0,0,0,0,0,0,0,-6.1065,-6.1068,-6.1225,-6.1226,-6.1227,-6.1304,-6.1305,-6.1306,-6.13,-6.1299,-6.1297,-6.1296,-6.1371,-6.1375,-6.1379,0,0,0,0,0,0,0,0,0,0,0,0,0,-6.1138,-6.1069,-6.1225,-6.1233,-6.1235,-6.1304,-6.1305,-6.1307,-6.13,-6.1299,-6.1297,-6.1295,-6.137,-6.1375,-6.1379,-6.1443,0,0,-6.1394,-6.1396,0,0,0,0,0,0,0,0,-6.1134,-6.1144,-6.1231,-6.1233,-6.1235,-6.1291,-6.1277,-6.1352,-6.1301,-6.1275,-6.1296,-6.1294,-6.1346,-6.1353,-6.1371,-6.1447,-6.145,-6.1394,-6.1397,-6.1399,-6.14,0,0,0,0,0,0,0,-6.1129,-6.114,-6.1256,-6.1232,-6.1234,-6.1232,-6.124,-6.1291,-6.1319,-6.1277,-6.1277,-6.1287,-6.1347,-6.1367,-6.1373,-6.1451,-6.1394,-6.1398,-6.1401,-6.1403,-6.1587,-6.1589,0,0,0,0,0,0,-6.1122,-6.1136,-6.1254,-6.1258,-6.1179,-6.1236,-6.1246,-6.1274,-6.1319,-6.1324,-6.1288,-6.1286,-6.136,-6.1368,-6.1376,-6.1456,-6.1399,-6.1403,-6.1406,-6.1584,-6.1587,-6.1589,0,0,0,0,0,0,-6.1119,-6.1133,-6.125,-6.1198,-6.1212,-6.1241,-6.1273,-6.1277,-6.1297,-6.1327,-6.1332,-6.1304,-6.1359,-6.1369,-6.1428,-6.1458,-6.1405,-6.141,-6.1582,-6.1585,-6.1588,-6.1615,0,0,0,0,0,0,-6.1114,-6.1132,-6.1157,-6.1198,-6.1215,-6.1302,-6.1275,-6.128,-6.1306,-6.1304,-6.1343,-6.1348,-6.1358,-6.1421,-6.1432,-6.1464,-6.1413,-6.1579,-6.1583,-6.1587,-6.1612,-6.1619,-6.1625,0,0,0,0,0,-6.1109,-6.116,-6.1158,-6.1172,-6.1248,-6.1304,-6.1313,-6.1326,-6.1308,-6.1333,-6.1354,-6.1347,-6.1453,-6.1427,-6.144,-6.1473,-6.1577,-6.1582,-6.1587,-6.1609,-6.1617,-6.1625,0,0,0,0,0,0,-6.1118,-6.1165,-6.1164,-6.123,-6.1264,-6.1303,-6.1335,-6.1334,-6.1371,-6.1368,-6.138,-6.1389,-6.1448,-6.1466,-6.1436,-6.1539,-6.1513,-6.152,-6.1525,-6.1534,-6.154,-6.1535,-6.1417,0,0,0,0,0,-6.1129,-6.1172,-6.121,-6.1264,-6.1281,-6.1306,-6.133,-6.1338,-6.1372,-6.1385,-6.1409,-6.1441,-6.1482,-6.1509,-6.1548,-6.1614,-6.1624,-6.1644,-6.165,-6.1656,-6.1662,-6.1701,-6.1711,-6.1605,-6.1605,-6.1604,0,0,-6.1149,-6.118,-6.1206,-6.1267,-6.1294,-6.1338,-6.1317,-6.1364,-6.1396,-6.1391,-6.1449,-6.1468,-6.1505,-6.1569,-6.1598,-6.1585,-6.1694,-6.1662,-6.1666,-6.1669,-6.1707,-6.1717,-6.1725,-6.1608,-6.1607,-6.1607,0,0,-6.121,-6.1238,-6.1288,-6.1316,-6.1357,-6.1374,-6.1386,-6.1426,-6.1439,-6.1498,-6.1496,-6.1534,-6.1604,-6.1632,-6.1654,-6.1729,-6.1725,-6.1741,-6.1776,-6.1813,-6.1822,-6.1829,-6.1857,-6.1867,-6.1747,-6.1747,-6.1747,0,-6.123,-6.1298,-6.1312,-6.1361,-6.1388,-6.1389,-6.1439,-6.1465,-6.1517,-6.1535,-6.1521,-6.1611,-6.1635,-6.1707,-6.1725,-6.1743,-6.1758,-6.1737,-6.182,-6.1827,-6.1834,-6.1861,-6.1872,-6.1749,-6.1749,-6.1749,-6.1749,0,-6.1321,-6.1368,-6.1403,-6.1457,-6.1488,-6.1537,-6.1558,-6.1588,-6.1593,-6.1611,-6.1671,-6.1701,-6.1748,-6.1765,-6.1769,-6.1837,-6.1829,-6.1817,-6.1791,-6.1846,-6.1872,-6.1882,-6.1752,-6.1751,-6.1751,-6.175,0,0,-6.1389,-6.1452,-6.1465,-6.149,-6.1538,-6.1574,-6.1623,-6.1671,-6.1697,-6.1733,-6.1775,-6.1836,-6.1826,-6.1852,-6.1859,-6.1892,-6.1952,-6.1877,-6.1878,-6.1891,-6.2031,-6.204,-6.2052,-6.1949,-6.1951,-6.1953,-6.2028,0,-6.1455,-6.1545,-6.1561,-6.1639,-6.1684,-6.1686,-6.173,-6.1763,-6.1782,-6.1821,-6.184,-6.1884,-6.1868,-6.1884,-6.1916,-6.1938,-6.198,-6.1932,-6.1988,-6.199,-6.198,-6.2065,-6.2074,-6.2144,-6.2038,-6.204,-6.2041,0,-6.1544,-6.1586,-6.167,-6.1715,-6.1734,-6.1772,-6.1819,-6.1857,-6.1895,-6.1907,-6.1938,-6.1942,-6.1993,-6.1965,-6.2037,-6.2004,-6.2028,-6.2042,-6.2045,-6.2051,-6.2019,-6.2074,-6.2166,-6.2177,-6.2057,-6.2055,-6.2054,0,-6.1587,-6.1664,-6.1725,-6.1746,-6.1799,-6.1827,-6.185,-6.1887,-6.1915,-6.1955,-6.1974,-6.2019,-6.2044,-6.2078,-6.2094,-6.2072,-6.2165,-6.2138,-6.2176,-6.2175,-6.2195,-6.2194,-6.2293,-6.2209,-6.2209,-6.2209,-6.2209,0,-6.166,-6.1711,-6.1745,-6.1783,-6.1841,-6.1859,-6.1915,-6.1937,-6.1971,-6.2012,-6.2016,-6.2054,-6.2073,-6.2114,-6.2127,-6.2185,-6.2195,-6.2206,-6.2209,-6.2206,-6.2205,-6.2222,-6.2218,-6.2212,-6.2211,-6.221,-6.221,0,-6.1717,-6.1742,-6.1809,-6.1855,-6.1868,-6.1908,-6.1947,-6.1983,-6.2003,-6.2055,-6.2068,-6.2098,-6.2147,-6.2167,-6.2226,-6.2235,-6.2302,-6.23,-6.229,-6.2291,-6.2328,-6.2325,-6.2442,-6.2459,-6.2363,-6.2364,-6.2365,0,-6.1763,-6.1803,-6.1854,-6.1884,-6.1909,-6.1955,-6.1986,-6.2005,-6.2036,-6.2085,-6.2116,-6.2165,-6.2206,-6.2284,-6.231,-6.2356,-6.2356,-6.2395,-6.2363,-6.236,-6.2358,-6.2356,-6.2361,-6.24,-6.2401,-6.2402,-6.2403,0,-6.1841,-6.1852,-6.1897,-6.1947,-6.1984,-6.2024,-6.2062,-6.2085,-6.2111,-6.2146,-6.2198,-6.223,-6.2292,-6.2342,-6.239,-6.2412,-6.2412,-6.2413,-6.2424,-6.2422,-6.2415,-6.2421,-6.2307,-6.241,-6.2409,-6.2408,-6.2408,-6.2408,-6.1894,-6.1931,-6.1975,-6.2025,-6.2057,-6.2094,-6.2131,-6.2157,-6.2201,-6.2255,-6.2263,-6.2319,-6.2358,-6.2423,-6.2448,-6.2491,-6.2481,-6.2497,-6.2501,-6.2505,-6.2508,-6.2408,-6.2499,-6.2499,-6.2499,-6.2499,-6.2499,0,-6.1974,-6.2003,-6.2049,-6.2105,-6.2145,-6.2144,-6.2188,-6.2221,-6.2271,-6.2308,-6.235,-6.241,-6.2459,-6.249,-6.2539,-6.2568,-6.2569,-6.258,-6.2578,-6.2584,-6.2514,-6.25,-6.2579,-6.2578,-6.2578,-6.2578,-6.2578,-6.2578,-6.202,-6.2084,-6.2101,-6.218,-6.2208,-6.2265,-6.229,-6.2324,-6.2354,-6.2423,-6.2464,-6.2485,-6.2521,-6.2573,-6.2618,-6.2626,-6.2644,-6.2656,-6.2663,-6.2597,-6.2589,-6.2581,-6.2568,-6.2659,-6.266,-6.273,-6.2731,-6.2731]}]]